Weather Roundup
Issued by NWS

Home | Current Version | Previous Version | Text Only | Print | Product List | Glossary On
Versions: 1 2 3 4 5 6 7 8 9 10 11 12 13 14 15 16 17 18 19 20 21 22 23 24 25 26 27 28 29 30 31 32 33 34 35 36 37 38 39 40 41 42 43 44 45 46 47 48 49 50
000
NZUS93 KARX 271410
HRRWXR

CURRENT HOURLY OBSERVATIONS ACROSS
MUCH OF THE UPPER MISSISSIPPI VALLEY
NATIONAL WEATHER SERVICE LA CROSSE WI
800 AM CST FRI FEB 27 2015


...SOUTHEAST MINNESOTA...


CITY           SKY/WX    TMP DP  RH WIND       PRES   REMARKS
ROCHESTER      MOSUNNY  -12 -17  78 W10       30.51R WCI -31
ROCHESTER/MAYO CLOUDY    -7 -13  74 W5        30.53R VSB 1/4 WCI -18
WINONA         SUNNY     -8 -13  77 CALM      30.59R
AUSTIN         MOSUNNY  -11 -17  77 NW5       30.52R HAZE    WCI -23
ALBERT LEA       N/A     -9 -13  84 CALM      30.52R
DODGE CENTER   MOSUNNY  -17 -20  83 W7        30.50R WCI -33
PRESTON        MOSUNNY   -9 -14  80 W6        30.52R WCI -23
OWATONNA       MOSUNNY  -11 -18  70 CALM      30.54R
FARIBAULT      MOSUNNY  -11 -17  77 CALM      30.54R
$$

...ELSEWHERE IN MINNESOTA...


CITY           SKY/WX    TMP DP  RH WIND       PRES   REMARKS
MINNEAPOLIS    FAIR      -5 -10  79 SW6       30.55R WCI -18
INTNL FALLS    PTCLDY   -16 -20  82 SW5       30.37R WCI -29
DULUTH         MOSUNNY   -8 -14  74 W7        30.39R WCI -23
RED WING       SUNNY     -8 -13  77 CALM      30.56R
REDWOOD FALLS  FAIR      -7 -13  75 W6        30.55S WCI -20
MANKATO        MOSUNNY   -9 -18  64 W3        30.55R
FAIRMONT       PTCLDY    -8 -13  77 CALM      30.53R
$$

...SOUTHWEST WISCONSIN...


CITY           SKY/WX    TMP DP  RH WIND       PRES   REMARKS
LA CROSSE      SUNNY     -6 -11  79 S6        30.58R WCI -19
PRAIRIE DU CHI MOSUNNY  -13 -20  72 CALM      30.61R
BOSCOBEL       SUNNY    -10 -15  78 SW6       30.60R WCI -23
LONE ROCK      SUNNY    -10 -16  74 W5        30.58R WCI -22
PLATTEVILLE    SUNNY    -13 -18  77 SW6       30.55R WCI -27
FORT MC COY    SUNNY    -14 -20  74 CALM      30.55R
CAMP DOUGLAS   SUNNY      0  -8  71 W5        30.53R WCI -10
VIROQUA        FAIR      -8 -12  81 W5        30.50R WCI -19
WIS DELLS      SUNNY     -5 -11  76 CALM      30.52R
$$

...ELSEWHERE IN WISCONSIN...


CITY           SKY/WX    TMP DP  RH WIND       PRES   REMARKS
MILWAUKEE      SUNNY      3  -8  60 NW6       30.53R WCI  -8
MADISON        SUNNY      0  -9  65 CALM      30.53R
GREEN BAY      SUNNY      1  -8  66 W7        30.51R WCI -12
EAU CLAIRE     SUNNY     -7 -13  75 SW7       30.52R WCI -21
BLACK RVR FLS  FAIR      -7 -13  75 CALM      30.54R
MEDFORD        SUNNY     -9 -14  76 W5        30.42R WCI -20
WAUSAU         SUNNY     -5 -13  68 NW7       30.44R WCI -19
WIS RAPIDS     SUNNY     -7 -13  75 CALM      30.51R
MARSHFIELD     SUNNY     -6 -13  71 W7        30.46R WCI -20
RICE LAKE      MOSUNNY  -12 -17  77 CALM      30.50R
$$

...NORTHEAST IOWA...


CITY           SKY/WX    TMP DP  RH WIND       PRES   REMARKS
DECORAH        MOSUNNY  -11 -17  77 CALM      30.53R
MASON CITY     MOSUNNY  -14 -19  79 W6        30.56R WCI -28
CHARLES CITY   PTSUNNY  -17 -24  70 NW7       30.56R WCI -33
OELWEIN        MOSUNNY  -18 -27  63 NW6       30.57R WCI -33
$$

...ELSEWHERE IN IOWA...


CITY           SKY/WX    TMP DP  RH WIND       PRES   REMARKS
DES MOINES     SUNNY     -4 -11  72 NW3       30.62R
IOWA CITY      MOSUNNY   -9 -13  83 NW5       30.64R WCI -20
FORT DODGE     MOSUNNY   -9 -15  77 NW5       30.59R WCI -21
$$

...NORTHERN ILLINOIS...


CITY           SKY/WX    TMP DP  RH WIND       PRES   REMARKS
CHICAGO-OHARE  MOSUNNY    1  -9  62 NW8       30.55R WCI -13
CHICAGO-MIDWAY MOSUNNY    5  -4  66 NW6       30.56R WCI  -6
MOLINE         PTSUNNY   -9 -13  83 W8        30.62R WCI -25
ROCKFORD       SUNNY    -11 -15  82 CALM      30.58R
PEORIA         SUNNY     -3 -11  68 NW3       30.62R
$$

NOTE: "FAIR" INDICATES FEW OR NO CLOUDS BELOW 12,000 FEET WITH NO
SIGNIFICANT WEATHER AND/OR OBSTRUCTIONS TO VISIBILITY. WIND
SPEEDS ARE IN MILES-PER-HOUR.



USA.gov is the U.S. government's official web portal to all federal, state and local government web resources and services.